[[{"header":{"parameterUnit":"m.s-1","parameterCategory":1,"la1":30.2991,"la2":30.254,"lo1":-89.0895,"lo2":-89.0444,"dy":0.0017,"dx":0.0017,"nx":28,"ny":28,"refTime":"2024-03-20T09:00:00:Z","depth":0,"parameterNumber":2,"parameterNumberName":"U-component_of_WINDS"},"data":[0,0,0,0,0,0,0,0,0,0,0,0,0,0,0,0,0,0,0,0,0,0,0,0,0,0,0,0,0,0,0,0,0,0,0,0,0,0,0,0,0,0,0,0,0,0,0,0,0,0,0,0,0,0,0,0,0,0,-3.8659,-3.8659,0,-3.8641,-3.8641,-3.8641,-3.8532,-3.8529,-3.8526,-3.8524,-3.8507,-3.8509,-3.8511,0,0,0,0,0,0,0,0,0,0,0,0,0,-3.86,-3.8601,-3.8659,-3.8659,-3.8659,-3.8641,-3.8641,-3.8641,-3.8532,-3.8529,-3.8526,-3.8522,-3.8506,-3.8508,-3.8511,0,0,0,0,0,0,0,0,0,0,0,0,0,-3.8608,-3.8602,-3.8659,-3.8602,-3.8597,-3.8641,-3.8641,-3.8641,-3.8533,-3.8529,-3.8525,-3.8521,-3.8505,-3.8508,-3.8511,-3.8609,0,0,-3.852,-3.8522,0,0,0,0,0,0,0,0,-3.8608,-3.8611,-3.8611,-3.8606,-3.86,-3.8584,-3.8614,-3.863,-3.8534,-3.8557,-3.8524,-3.8519,-3.8536,-3.8536,-3.8542,-3.8609,-3.8608,-3.8521,-3.8523,-3.8524,-3.8525,0,0,0,0,0,0,0,-3.8607,-3.8611,-3.8652,-3.8611,-3.8604,-3.8578,-3.8575,-3.8616,-3.8569,-3.8555,-3.8547,-3.8546,-3.8532,-3.8539,-3.854,-3.8608,-3.8521,-3.8523,-3.8525,-3.8526,-3.8755,-3.8759,0,0,0,0,0,0,-3.8615,-3.8611,-3.8652,-3.8651,-3.8594,-3.8582,-3.8579,-3.8594,-3.8568,-3.8561,-3.855,-3.8541,-3.8536,-3.8537,-3.8539,-3.8653,-3.8524,-3.8527,-3.8528,-3.8751,-3.8756,-3.8761,0,0,0,0,0,0,-3.8614,-3.8619,-3.8653,-3.8629,-3.8631,-3.8587,-3.8605,-3.8595,-3.8602,-3.8564,-3.8555,-3.8565,-3.8533,-3.8535,-3.8593,-3.865,-3.8528,-3.8531,-3.8746,-3.8752,-3.8758,-3.888,0,0,0,0,0,0,-3.8613,-3.862,-3.8656,-3.8631,-3.8633,-3.8707,-3.8609,-3.8598,-3.8607,-3.8596,-3.8576,-3.8569,-3.853,-3.8589,-3.8596,-3.8652,-3.8533,-3.874,-3.8749,-3.8756,-3.8871,-3.889,-3.8907,0,0,0,0,0,-3.8611,-3.8691,-3.8659,-3.8664,-3.8678,-3.871,-3.8712,-3.8664,-3.8612,-3.8649,-3.8625,-3.857,-3.8644,-3.8596,-3.8603,-3.8661,-3.8736,-3.8746,-3.8756,-3.8863,-3.8886,-3.8906,0,0,0,0,0,0,-3.8725,-3.8687,-3.865,-3.8725,-3.8722,-3.8692,-3.8736,-3.869,-3.8702,-3.8691,-3.8632,-3.8629,-3.8695,-3.8684,-3.8632,-3.8755,-3.8681,-3.8692,-3.876,-3.8782,-3.8799,-3.88,-3.8536,0,0,0,0,0,-3.8758,-3.8788,-3.8753,-3.8823,-3.8823,-3.8781,-3.8793,-3.8757,-3.8751,-3.8749,-3.8729,-3.8727,-3.8749,-3.8765,-3.8783,-3.8869,-3.8863,-3.8913,-3.8931,-3.8946,-3.8956,-3.9001,-3.9022,-3.8792,-3.8792,-3.8792,0,0,-3.8828,-3.8811,-3.8834,-3.8845,-3.8838,-3.8871,-3.878,-3.8818,-3.8841,-3.8755,-3.8808,-3.8794,-3.8787,-3.8859,-3.889,-3.8852,-3.9019,-3.8958,-3.897,-3.8972,-3.9013,-3.9035,-3.9054,-3.8798,-3.8797,-3.8796,0,0,-3.8972,-3.8962,-3.9019,-3.9014,-3.9006,-3.8977,-3.8991,-3.8969,-3.8956,-3.9008,-3.8944,-3.8972,-3.9012,-3.9009,-3.9013,-3.9159,-3.9109,-3.9166,-3.9259,-3.9304,-3.9322,-3.9337,-3.9389,-3.9408,-3.9177,-3.9177,-3.9178,0,-3.906,-3.9106,-3.9054,-3.9096,-3.9103,-3.9027,-3.9085,-3.9083,-3.9081,-3.9088,-3.9045,-3.9094,-3.9084,-3.9155,-3.919,-3.9196,-3.921,-3.9168,-3.9323,-3.9339,-3.9353,-3.9401,-3.9421,-3.9184,-3.9184,-3.9183,-3.9182,0,-3.9214,-3.9247,-3.9294,-3.9294,-3.9307,-3.9357,-3.9313,-3.9332,-3.9296,-3.9272,-3.9327,-3.9312,-3.9327,-3.9341,-3.9306,-3.9408,-3.9384,-3.9334,-3.9257,-3.9382,-3.9427,-3.9445,-3.9194,-3.9192,-3.919,-3.9188,0,0,-3.9427,-3.9399,-3.9417,-3.9417,-3.9402,-3.9427,-3.9474,-3.9488,-3.9506,-3.9508,-3.9545,-3.9582,-3.9535,-3.954,-3.9503,-3.9543,-3.9659,-3.9487,-3.9486,-3.9519,-3.9771,-3.9808,-3.9831,-3.9626,-3.963,-3.9632,-3.9771,0,-3.9565,-3.9642,-3.9598,-3.9682,-3.9712,-3.9642,-3.9683,-3.9679,-3.9658,-3.9681,-3.9658,-3.9685,-3.9621,-3.9624,-3.966,-3.9637,-3.9708,-3.9627,-3.9661,-3.9663,-3.9664,-3.9854,-3.9894,-4.0025,-3.9788,-3.9791,-3.9793,0,-3.9735,-3.9744,-3.9832,-3.9813,-3.9824,-3.9861,-3.9871,-3.9894,-3.9888,-3.9871,-3.9877,-3.9832,-3.9877,-3.9803,-3.9864,-3.981,-3.9821,-3.9813,-3.9817,-3.9817,-3.9735,-3.9859,-4.0066,-4.0086,-3.982,-3.9818,-3.9816,0,-3.9881,-3.9916,-3.9973,-3.9975,-3.9954,-3.9982,-3.9975,-3.9965,-3.9977,-3.9986,-3.9993,-4.0007,-4.0015,-4.0028,-3.9988,-3.9938,-4.0055,-3.9977,-4.0042,-4.0043,-4.0069,-4.0068,-4.028,-4.0078,-4.0078,-4.0078,-4.0077,0,-4.0039,-4.0095,-4.0038,-4.0073,-4.0135,-4.0084,-4.0146,-4.0131,-4.0124,-4.0155,-4.0095,-4.0126,-4.0071,-4.0097,-4.0066,-4.0122,-4.0126,-4.0113,-4.0104,-4.0118,-4.012,-4.0124,-4.0114,-4.0083,-4.0082,-4.0081,-4.008,0,-4.0212,-4.0176,-4.0233,-4.021,-4.0205,-4.0251,-4.0231,-4.0262,-4.0238,-4.0279,-4.0285,-4.0248,-4.0275,-4.0237,-4.026,-4.0239,-4.0316,-4.0294,-4.0318,-4.0311,-4.0377,-4.0372,-4.0599,-4.0627,-4.0408,-4.0411,-4.0412,0,-4.0314,-4.0356,-4.0337,-4.0354,-4.035,-4.0377,-4.0389,-4.0341,-4.0356,-4.0354,-4.0386,-4.0408,-4.0423,-4.047,-4.0445,-4.0463,-4.044,-4.0518,-4.0442,-4.0455,-4.044,-4.0438,-4.0442,-4.0534,-4.0536,-4.0539,-4.054,0,-4.05,-4.048,-4.05,-4.0514,-4.053,-4.0538,-4.0542,-4.0559,-4.0509,-4.0529,-4.0556,-4.0568,-4.0592,-4.0615,-4.0626,-4.0619,-4.0572,-4.0565,-4.0581,-4.0595,-4.0607,-4.0601,-4.036,-4.056,-4.0558,-4.0556,-4.0555,-4.0554,-4.064,-4.0674,-4.0666,-4.069,-4.0688,-4.0694,-4.0723,-4.0703,-4.0724,-4.074,-4.0711,-4.0746,-4.074,-4.075,-4.0749,-4.0775,-4.0741,-4.0764,-4.077,-4.0776,-4.0786,-4.0604,-4.0777,-4.0777,-4.0776,-4.0776,-4.0775,0,-4.0822,-4.0814,-4.0836,-4.0844,-4.0863,-4.0818,-4.0821,-4.084,-4.0871,-4.087,-4.0886,-4.0918,-4.094,-4.0918,-4.0936,-4.0961,-4.094,-4.0968,-4.0965,-4.0964,-4.0816,-4.08,-4.0984,-4.0984,-4.0984,-4.0984,-4.0984,-4.0984,-4.0919,-4.0974,-4.0954,-4.1008,-4.0999,-4.1033,-4.1038,-4.1043,-4.1042,-4.108,-4.1099,-4.1084,-4.1075,-4.1092,-4.111,-4.1103,-4.1113,-4.1148,-4.1133,-4.0995,-4.0974,-4.0955,-4.094,-4.115,-4.115,-4.1279,-4.128,-4.1281]},{"header":{"parameterUnit":"m.s-1","parameterCategory":1,"la1":30.2991,"la2":30.254,"lo1":-89.0895,"lo2":-89.0444,"dy":0.0017,"dx":0.0017,"nx":28,"ny":28,"refTime":"2024-03-20T09:00:00:Z","depth":0,"parameterNumber":3,"parameterNumberName":"V-component_of_WINDS"},"data":[0,0,0,0,0,0,0,0,0,0,0,0,0,0,0,0,0,0,0,0,0,0,0,0,0,0,0,0,0,0,0,0,0,0,0,0,0,0,0,0,0,0,0,0,0,0,0,0,0,0,0,0,0,0,0,0,0,0,-0.1999,-0.1999,0,-0.2003,-0.2003,-0.2003,-0.2004,-0.2004,-0.2004,-0.2004,-0.2007,-0.2007,-0.2008,0,0,0,0,0,0,0,0,0,0,0,0,0,-0.1991,-0.1992,-0.1999,-0.1999,-0.1999,-0.2003,-0.2003,-0.2003,-0.2004,-0.2004,-0.2004,-0.2004,-0.2007,-0.2007,-0.2008,0,0,0,0,0,0,0,0,0,0,0,0,0,-0.1995,-0.1992,-0.1999,-0.2,-0.2,-0.2003,-0.2003,-0.2003,-0.2004,-0.2004,-0.2004,-0.2004,-0.2007,-0.2007,-0.2008,-0.2009,0,0,-0.2008,-0.2008,0,0,0,0,0,0,0,0,-0.1995,-0.1995,-0.2,-0.2,-0.2,-0.2003,-0.2001,-0.2005,-0.2004,-0.2003,-0.2004,-0.2004,-0.2006,-0.2006,-0.2007,-0.2009,-0.2009,-0.2008,-0.2008,-0.2008,-0.2008,0,0,0,0,0,0,0,-0.1994,-0.1995,-0.2,-0.2,-0.2,-0.2,-0.2,-0.2002,-0.2004,-0.2003,-0.2003,-0.2003,-0.2006,-0.2007,-0.2007,-0.2009,-0.2008,-0.2008,-0.2008,-0.2008,-0.2012,-0.2012,0,0,0,0,0,0,-0.1994,-0.1995,-0.2,-0.2001,-0.1997,-0.2,-0.2001,-0.2002,-0.2004,-0.2005,-0.2003,-0.2003,-0.2006,-0.2007,-0.2007,-0.2008,-0.2008,-0.2008,-0.2008,-0.2012,-0.2012,-0.2012,0,0,0,0,0,0,-0.1994,-0.1995,-0.2,-0.1998,-0.1998,-0.2,-0.2002,-0.2002,-0.2003,-0.2005,-0.2005,-0.2004,-0.2006,-0.2007,-0.2008,-0.2009,-0.2008,-0.2009,-0.2012,-0.2012,-0.2012,-0.2011,0,0,0,0,0,0,-0.1994,-0.1995,-0.1996,-0.1998,-0.1999,-0.2002,-0.2002,-0.2002,-0.2003,-0.2003,-0.2005,-0.2006,-0.2006,-0.2008,-0.2009,-0.2009,-0.2009,-0.2012,-0.2012,-0.2012,-0.2011,-0.2011,-0.2011,0,0,0,0,0,-0.1994,-0.1995,-0.1996,-0.1996,-0.2,-0.2002,-0.2002,-0.2003,-0.2003,-0.2004,-0.2005,-0.2005,-0.2008,-0.2008,-0.2009,-0.2009,-0.2012,-0.2012,-0.2012,-0.2011,-0.2011,-0.2011,0,0,0,0,0,0,-0.1993,-0.1996,-0.1996,-0.1999,-0.2,-0.2002,-0.2003,-0.2004,-0.2005,-0.2005,-0.2006,-0.2006,-0.2008,-0.2008,-0.2008,-0.201,-0.201,-0.201,-0.201,-0.2009,-0.2009,-0.2009,-0.2009,0,0,0,0,0,-0.1994,-0.1995,-0.1997,-0.1999,-0.2,-0.2001,-0.2002,-0.2003,-0.2004,-0.2005,-0.2006,-0.2007,-0.2008,-0.2009,-0.201,-0.2011,-0.2011,-0.2012,-0.2012,-0.2012,-0.2012,-0.2012,-0.2012,-0.2012,-0.2012,-0.2012,0,0,-0.1994,-0.1996,-0.1997,-0.1999,-0.2,-0.2002,-0.2002,-0.2003,-0.2004,-0.2005,-0.2007,-0.2007,-0.2008,-0.201,-0.201,-0.201,-0.2011,-0.2012,-0.2012,-0.2012,-0.2012,-0.2012,-0.2012,-0.2012,-0.2012,-0.2012,0,0,-0.1996,-0.1997,-0.1999,-0.2,-0.2002,-0.2002,-0.2003,-0.2004,-0.2005,-0.2006,-0.2006,-0.2007,-0.2009,-0.201,-0.201,-0.2011,-0.2011,-0.2011,-0.2011,-0.2011,-0.2011,-0.2011,-0.2011,-0.2011,-0.2011,-0.2011,-0.2011,0,-0.1997,-0.1999,-0.2,-0.2001,-0.2002,-0.2002,-0.2004,-0.2004,-0.2006,-0.2006,-0.2006,-0.2008,-0.2009,-0.201,-0.201,-0.2011,-0.2011,-0.2011,-0.2011,-0.2011,-0.2011,-0.2011,-0.201,-0.2011,-0.2011,-0.2011,-0.2011,0,-0.1999,-0.2,-0.2001,-0.2003,-0.2004,-0.2005,-0.2006,-0.2006,-0.2006,-0.2007,-0.2008,-0.2009,-0.201,-0.201,-0.201,-0.2011,-0.2011,-0.2011,-0.2011,-0.2011,-0.201,-0.201,-0.2011,-0.2011,-0.2011,-0.2011,0,0,-0.2002,-0.2003,-0.2003,-0.2003,-0.2005,-0.2005,-0.2006,-0.2007,-0.2007,-0.2008,-0.2008,-0.201,-0.201,-0.201,-0.201,-0.201,-0.201,-0.201,-0.201,-0.201,-0.2009,-0.2009,-0.2009,-0.201,-0.201,-0.201,-0.2009,0,-0.2003,-0.2005,-0.2005,-0.2007,-0.2007,-0.2007,-0.2008,-0.2008,-0.2008,-0.2009,-0.2009,-0.201,-0.201,-0.201,-0.201,-0.201,-0.201,-0.201,-0.201,-0.201,-0.2009,-0.2009,-0.2009,-0.2008,-0.2009,-0.2009,-0.2009,0,-0.2005,-0.2006,-0.2007,-0.2007,-0.2008,-0.2008,-0.2009,-0.2009,-0.2009,-0.2009,-0.2009,-0.201,-0.201,-0.201,-0.201,-0.201,-0.2009,-0.2009,-0.2009,-0.2009,-0.2009,-0.2009,-0.2008,-0.2008,-0.2009,-0.2009,-0.2009,0,-0.2006,-0.2008,-0.2008,-0.2009,-0.2009,-0.2009,-0.2009,-0.2009,-0.2009,-0.201,-0.2009,-0.201,-0.201,-0.2009,-0.2009,-0.2009,-0.2009,-0.2009,-0.2008,-0.2008,-0.2008,-0.2008,-0.2007,-0.2009,-0.2009,-0.2009,-0.2009,0,-0.2008,-0.2009,-0.2009,-0.2009,-0.201,-0.201,-0.201,-0.201,-0.201,-0.201,-0.201,-0.201,-0.2009,-0.2009,-0.2009,-0.2008,-0.2008,-0.2008,-0.2008,-0.2008,-0.2008,-0.2008,-0.2008,-0.2009,-0.2009,-0.2009,-0.2009,0,-0.201,-0.201,-0.201,-0.201,-0.201,-0.201,-0.201,-0.201,-0.201,-0.201,-0.201,-0.2009,-0.2009,-0.2009,-0.2008,-0.2008,-0.2007,-0.2007,-0.2007,-0.2007,-0.2006,-0.2006,-0.2005,-0.2005,-0.2007,-0.2007,-0.2007,0,-0.2011,-0.2011,-0.2011,-0.2011,-0.2011,-0.2011,-0.2011,-0.201,-0.201,-0.201,-0.201,-0.2009,-0.2009,-0.2008,-0.2007,-0.2007,-0.2007,-0.2006,-0.2007,-0.2006,-0.2006,-0.2006,-0.2006,-0.2006,-0.2006,-0.2006,-0.2006,0,-0.2012,-0.2012,-0.2012,-0.2012,-0.2012,-0.2011,-0.2011,-0.2011,-0.201,-0.201,-0.2009,-0.2009,-0.2008,-0.2007,-0.2007,-0.2006,-0.2006,-0.2006,-0.2006,-0.2006,-0.2005,-0.2005,-0.2007,-0.2006,-0.2006,-0.2006,-0.2006,-0.2006,-0.2013,-0.2013,-0.2013,-0.2013,-0.2012,-0.2012,-0.2011,-0.2011,-0.201,-0.201,-0.2009,-0.2009,-0.2008,-0.2006,-0.2006,-0.2005,-0.2005,-0.2005,-0.2005,-0.2005,-0.2004,-0.2006,-0.2005,-0.2005,-0.2005,-0.2005,-0.2005,0,-0.2015,-0.2014,-0.2014,-0.2013,-0.2013,-0.2012,-0.2012,-0.2011,-0.201,-0.201,-0.2009,-0.2008,-0.2007,-0.2006,-0.2004,-0.2004,-0.2004,-0.2003,-0.2003,-0.2003,-0.2005,-0.2005,-0.2004,-0.2004,-0.2004,-0.2004,-0.2004,-0.2004,-0.2015,-0.2015,-0.2014,-0.2014,-0.2013,-0.2012,-0.2012,-0.2011,-0.201,-0.2009,-0.2008,-0.2007,-0.2006,-0.2005,-0.2003,-0.2003,-0.2002,-0.2002,-0.2002,-0.2003,-0.2003,-0.2003,-0.2003,-0.2002,-0.2002,-0.2001,-0.2001,-0.2]}]]